SUR4015 SABE-SACO

Flight info

Callsign SUR4015
Flight time 1h 38m
Altitude 120
Route ATOV4B ATOVO W5 ASISA ASIS1Q
Aircraft AT72/M-SDE3L/L

Departure

Time 2026-05-06 02:37
Airport Aeroparque Jorge Newbery (SABE)

Arrival

Time 2026-05-06 04:15
Airport Ingeniero Aeronáutico Ambrosio L.V. Taravella International Airport (SACO)
Time Latitude Longitude Altitude Speed Heading
2026-05-06 02:28 -34.55708 -58.41611 26 ft 0 kts 300°
2026-05-06 02:30 -34.55708 -58.41612 26 ft 0 kts 300°
2026-05-06 02:30 -34.55707 -58.41612 26 ft 0 kts 300°
2026-05-06 02:31 -34.55708 -58.41611 26 ft 1 kts 300°
2026-05-06 02:32 -34.55714 -58.41597 26 ft 3 kts 300°
2026-05-06 02:32 -34.55724 -58.41577 26 ft 3 kts 300°
2026-05-06 02:32 -34.55733 -58.41558 26 ft 1 kts 300°
2026-05-06 02:32 -34.55756 -58.41632 26 ft 10 kts 256°
2026-05-06 02:33 -34.55735 -58.41712 26 ft 10 kts 296°
2026-05-06 02:33 -34.55714 -58.41763 26 ft 10 kts 288°
2026-05-06 02:34 -34.55724 -58.41829 26 ft 0 kts 237°
2026-05-06 02:34 -34.55730 -58.41851 26 ft 7 kts 255°
2026-05-06 02:34 -34.55759 -58.41852 26 ft 4 kts 137°
2026-05-06 02:35 -34.55765 -58.41842 26 ft 1 kts 123°
2026-05-06 02:35 -34.55785 -58.41804 26 ft 26 kts 123°
2026-05-06 02:35 -34.55848 -58.41691 26 ft 0 kts 122°
2026-05-06 02:35 -34.55847 -58.41692 26 ft 0 kts 122°
2026-05-06 02:36 -34.55866 -58.41656 26 ft 29 kts 122°
2026-05-06 02:36 -34.56119 -58.41196 26 ft 97 kts 123°
2026-05-06 02:36 -34.56564 -58.40384 211 ft 122 kts 123°
2026-05-06 02:36 -34.57065 -58.39467 451 ft 148 kts 123°
2026-05-06 02:37 -34.57665 -58.38371 866 ft 155 kts 124°
2026-05-06 02:37 -34.58303 -58.37222 1175 ft 175 kts 123°
2026-05-06 02:37 -34.58990 -58.35924 1435 ft 189 kts 109°
2026-05-06 02:37 -34.58953 -58.34329 1720 ft 197 kts 67°
2026-05-06 02:38 -34.57998 -58.33136 2006 ft 207 kts 27°
2026-05-06 02:38 -34.56553 -58.32973 2287 ft 218 kts 348°
2026-05-06 02:38 -34.55281 -58.33980 2577 ft 223 kts 307°
2026-05-06 02:38 -34.54571 -58.35644 2875 ft 225 kts 290°
2026-05-06 02:39 -34.54062 -58.37457 3155 ft 228 kts 287°
2026-05-06 02:39 -34.53594 -58.39304 3433 ft 230 kts 286°
2026-05-06 02:39 -34.53124 -58.41166 3711 ft 232 kts 287°
2026-05-06 02:39 -34.52645 -58.43034 3987 ft 232 kts 288°
2026-05-06 02:40 -34.52135 -58.44897 4263 ft 233 kts 290°
2026-05-06 02:40 -34.51523 -58.46718 4539 ft 233 kts 295°
2026-05-06 02:40 -34.50797 -58.48478 4815 ft 233 kts 299°
2026-05-06 02:40 -34.49988 -58.50156 5088 ft 233 kts 302°
2026-05-06 02:41 -34.49101 -58.51804 5363 ft 234 kts 304°
2026-05-06 02:41 -34.48164 -58.53418 5639 ft 234 kts 306°
2026-05-06 02:41 -34.47194 -58.55003 5914 ft 234 kts 306°
2026-05-06 02:41 -34.46194 -58.56579 6191 ft 235 kts 307°
2026-05-06 02:42 -34.45178 -58.58142 6462 ft 237 kts 306°
2026-05-06 02:42 -34.44152 -58.59695 6729 ft 241 kts 309°
2026-05-06 02:42 -34.43091 -58.61286 7009 ft 244 kts 309°
2026-05-06 02:42 -34.42014 -58.62883 7286 ft 246 kts 309°
2026-05-06 02:43 -34.40925 -58.64491 7563 ft 247 kts 310°
2026-05-06 02:43 -34.39827 -58.66105 7839 ft 249 kts 310°
2026-05-06 02:43 -34.38717 -58.67731 8116 ft 250 kts 310°
2026-05-06 02:43 -34.37602 -58.69363 8393 ft 252 kts 310°
2026-05-06 02:44 -34.36481 -58.71002 8669 ft 253 kts 310°
2026-05-06 02:44 -34.35368 -58.72627 8941 ft 255 kts 310°
2026-05-06 02:44 -34.33089 -58.75951 9494 ft 257 kts 310°
2026-05-06 02:45 -34.31943 -58.77621 9770 ft 259 kts 309°
2026-05-06 02:45 -34.30785 -58.79307 10047 ft 260 kts 309°
2026-05-06 02:45 -34.29627 -58.80992 10325 ft 261 kts 310°
2026-05-06 02:45 -34.28483 -58.82660 10599 ft 262 kts 310°
2026-05-06 02:46 -34.27315 -58.84359 10875 ft 263 kts 310°
2026-05-06 02:46 -34.26142 -58.86063 11151 ft 264 kts 311°
2026-05-06 02:46 -34.24964 -58.87774 11427 ft 265 kts 311°
2026-05-06 02:46 -34.23780 -58.89492 11703 ft 266 kts 311°
2026-05-06 02:47 -34.22587 -58.91223 11912 ft 270 kts 311°
2026-05-06 02:47 -34.21378 -58.92975 11969 ft 280 kts 311°
2026-05-06 02:47 -34.20106 -58.94818 11997 ft 290 kts 311°
2026-05-06 02:47 -34.18794 -58.96717 12002 ft 299 kts 311°
2026-05-06 02:48 -34.17445 -58.98669 12003 ft 305 kts 311°
2026-05-06 02:48 -34.16071 -59.00658 12002 ft 308 kts 311°
2026-05-06 02:48 -34.14718 -59.02617 11999 ft 301 kts 311°
2026-05-06 02:48 -34.13404 -59.04519 11998 ft 295 kts 311°
2026-05-06 02:49 -34.12099 -59.06408 11998 ft 291 kts 311°
2026-05-06 02:49 -34.10812 -59.08270 11999 ft 287 kts 311°
2026-05-06 02:49 -34.09540 -59.10107 11999 ft 284 kts 311°
2026-05-06 02:49 -34.08289 -59.11923 11998 ft 280 kts 310°
2026-05-06 02:50 -34.07121 -59.13798 11999 ft 278 kts 307°
2026-05-06 02:50 -34.06027 -59.15710 11999 ft 275 kts 305°
2026-05-06 02:50 -34.04977 -59.17628 11999 ft 273 kts 304°
2026-05-06 02:50 -34.03950 -59.19552 11999 ft 271 kts 304°
2026-05-06 02:51 -34.02943 -59.21467 11999 ft 269 kts 303°
2026-05-06 02:51 -34.01949 -59.23373 11999 ft 267 kts 303°
2026-05-06 02:51 -34.00966 -59.25271 11999 ft 266 kts 303°
2026-05-06 02:51 -34.00005 -59.27134 11999 ft 264 kts 303°
2026-05-06 02:52 -33.99037 -59.29017 11999 ft 263 kts 303°
2026-05-06 02:52 -33.98076 -59.30889 11999 ft 262 kts 303°
2026-05-06 02:52 -33.97116 -59.32763 11999 ft 261 kts 303°
2026-05-06 02:52 -33.96175 -59.34599 11999 ft 260 kts 303°
2026-05-06 02:53 -33.95230 -59.36446 11999 ft 259 kts 303°
2026-05-06 02:53 -33.94285 -59.38294 11999 ft 258 kts 303°
2026-05-06 02:53 -33.93344 -59.40131 11999 ft 257 kts 303°
2026-05-06 02:53 -33.92404 -59.41969 11999 ft 257 kts 303°
2026-05-06 02:54 -33.91469 -59.43796 11999 ft 256 kts 303°
2026-05-06 02:54 -33.90536 -59.45618 12000 ft 255 kts 303°
2026-05-06 02:54 -33.89604 -59.47439 12000 ft 255 kts 303°
2026-05-06 02:54 -33.88672 -59.49259 12000 ft 254 kts 303°
2026-05-06 02:55 -33.87745 -59.51068 12000 ft 254 kts 303°
2026-05-06 02:55 -33.86825 -59.52861 12000 ft 254 kts 303°
2026-05-06 02:55 -33.85895 -59.54676 11998 ft 254 kts 303°
2026-05-06 02:55 -33.84966 -59.56484 11997 ft 254 kts 303°
2026-05-06 02:56 -33.84037 -59.58295 11998 ft 254 kts 303°
2026-05-06 02:56 -33.83109 -59.60102 11998 ft 254 kts 303°
2026-05-06 02:56 -33.82178 -59.61913 11998 ft 254 kts 303°
2026-05-06 02:56 -33.81249 -59.63719 11999 ft 254 kts 303°
2026-05-06 02:57 -33.80333 -59.65502 11999 ft 254 kts 303°
2026-05-06 02:57 -33.79403 -59.67307 12000 ft 254 kts 303°
2026-05-06 02:57 -33.78474 -59.69112 12000 ft 253 kts 303°
2026-05-06 02:57 -33.77545 -59.70916 12000 ft 253 kts 303°
2026-05-06 02:58 -33.76616 -59.72719 12000 ft 253 kts 303°
2026-05-06 02:58 -33.75686 -59.74522 12000 ft 253 kts 303°
2026-05-06 02:58 -33.74768 -59.76300 11995 ft 254 kts 302°
2026-05-06 02:58 -33.73826 -59.78117 11976 ft 256 kts 300°
2026-05-06 02:59 -33.72884 -59.79940 11971 ft 257 kts 300°
2026-05-06 02:59 -33.71939 -59.81771 11970 ft 258 kts 300°
2026-05-06 02:59 -33.70991 -59.83607 11970 ft 259 kts 300°
2026-05-06 02:59 -33.70040 -59.85448 11971 ft 259 kts 300°
2026-05-06 03:00 -33.69085 -59.87294 11971 ft 260 kts 300°
2026-05-06 03:00 -33.68130 -59.89142 11972 ft 260 kts 301°
2026-05-06 03:00 -33.67171 -59.90993 11973 ft 261 kts 301°
2026-05-06 03:00 -33.66226 -59.92817 11972 ft 261 kts 300°
2026-05-06 03:01 -33.65263 -59.94675 11974 ft 261 kts 301°
2026-05-06 03:01 -33.64301 -59.96530 11975 ft 262 kts 301°
2026-05-06 03:01 -33.63338 -59.98387 11976 ft 262 kts 301°
2026-05-06 03:01 -33.62374 -60.00241 11979 ft 262 kts 298°
2026-05-06 03:02 -33.61411 -60.02089 11963 ft 261 kts 298°
2026-05-06 03:02 -33.60454 -60.03928 11953 ft 259 kts 298°
2026-05-06 03:02 -33.59501 -60.05760 11949 ft 257 kts 299°
2026-05-06 03:02 -33.58559 -60.07573 11946 ft 256 kts 299°
2026-05-06 03:03 -33.57620 -60.09376 11944 ft 254 kts 299°
2026-05-06 03:03 -33.56690 -60.11164 11938 ft 252 kts 300°
2026-05-06 03:03 -33.55762 -60.12946 11937 ft 250 kts 300°
2026-05-06 03:03 -33.54849 -60.14697 11937 ft 249 kts 300°
2026-05-06 03:04 -33.53935 -60.16448 11937 ft 247 kts 300°
2026-05-06 03:04 -33.53025 -60.18191 11936 ft 246 kts 300°
2026-05-06 03:04 -33.52120 -60.19924 11937 ft 244 kts 300°
2026-05-06 03:04 -33.51220 -60.21647 11937 ft 243 kts 300°
2026-05-06 03:05 -33.50326 -60.23358 11938 ft 242 kts 300°
2026-05-06 03:05 -33.49432 -60.25068 11942 ft 241 kts 300°
2026-05-06 03:05 -33.48543 -60.26766 11943 ft 240 kts 300°
2026-05-06 03:05 -33.47669 -60.28437 11942 ft 239 kts 300°
2026-05-06 03:06 -33.46787 -60.30122 11942 ft 238 kts 300°
2026-05-06 03:06 -33.45905 -60.31805 11942 ft 238 kts 300°
2026-05-06 03:06 -33.45021 -60.33493 11943 ft 237 kts 300°
2026-05-06 03:06 -33.44148 -60.35158 11943 ft 236 kts 300°
2026-05-06 03:07 -33.43273 -60.36826 11943 ft 236 kts 300°
2026-05-06 03:07 -33.42400 -60.38489 11943 ft 235 kts 300°
2026-05-06 03:07 -33.41529 -60.40147 11943 ft 235 kts 300°
2026-05-06 03:07 -33.40661 -60.41801 11943 ft 235 kts 300°
2026-05-06 03:08 -33.39802 -60.43435 11943 ft 234 kts 300°
2026-05-06 03:08 -33.38936 -60.45082 11942 ft 234 kts 300°
2026-05-06 03:08 -33.38069 -60.46731 11942 ft 233 kts 300°
2026-05-06 03:08 -33.37204 -60.48374 11941 ft 233 kts 300°
2026-05-06 03:09 -33.36340 -60.50016 11941 ft 233 kts 300°
2026-05-06 03:09 -33.35474 -60.51660 11941 ft 233 kts 300°
2026-05-06 03:09 -33.34609 -60.53301 11941 ft 233 kts 300°
2026-05-06 03:09 -33.33744 -60.54942 11941 ft 232 kts 300°
2026-05-06 03:10 -33.32883 -60.56576 11941 ft 232 kts 300°
2026-05-06 03:10 -33.32020 -60.58211 11941 ft 232 kts 300°
2026-05-06 03:10 -33.31166 -60.59828 11941 ft 232 kts 300°
2026-05-06 03:10 -33.30305 -60.61460 11941 ft 232 kts 300°
2026-05-06 03:11 -33.29445 -60.63088 11941 ft 232 kts 300°
2026-05-06 03:11 -33.28581 -60.64721 11942 ft 232 kts 300°
2026-05-06 03:11 -33.27720 -60.66349 11942 ft 232 kts 300°
2026-05-06 03:11 -33.26859 -60.67978 11942 ft 232 kts 300°
2026-05-06 03:12 -33.25997 -60.69606 11942 ft 232 kts 300°
2026-05-06 03:12 -33.25141 -60.71222 11941 ft 232 kts 300°
2026-05-06 03:12 -33.24559 -60.72320 11941 ft 232 kts 300°
2026-05-06 03:12 -33.23417 -60.74476 11941 ft 232 kts 300°
2026-05-06 03:13 -33.22556 -60.76099 11941 ft 232 kts 300°
2026-05-06 03:13 -33.21973 -60.77199 11941 ft 232 kts 300°
2026-05-06 03:13 -33.20832 -60.79350 11939 ft 232 kts 300°
2026-05-06 03:13 -33.20248 -60.80450 11939 ft 232 kts 300°
2026-05-06 03:14 -33.19396 -60.82054 11939 ft 232 kts 300°
2026-05-06 03:14 -33.18533 -60.83677 11939 ft 231 kts 300°
2026-05-06 03:14 -33.17670 -60.85301 11939 ft 231 kts 300°
2026-05-06 03:14 -33.16807 -60.86923 11939 ft 231 kts 301°
2026-05-06 03:15 -33.15946 -60.88543 11939 ft 231 kts 301°
2026-05-06 03:15 -33.15078 -60.90174 11940 ft 231 kts 301°
2026-05-06 03:15 -33.14215 -60.91796 11940 ft 231 kts 301°
2026-05-06 03:15 -33.13353 -60.93413 11940 ft 231 kts 300°
2026-05-06 03:16 -33.12487 -60.95033 11939 ft 232 kts 300°
2026-05-06 03:16 -33.11622 -60.96654 11940 ft 232 kts 300°
2026-05-06 03:16 -33.10756 -60.98279 11940 ft 232 kts 300°
2026-05-06 03:16 -33.09897 -60.99890 11940 ft 232 kts 300°
2026-05-06 03:17 -33.09029 -61.01516 11940 ft 233 kts 300°
2026-05-06 03:17 -33.08156 -61.03149 11940 ft 233 kts 299°
2026-05-06 03:17 -33.07283 -61.04782 11939 ft 234 kts 298°
2026-05-06 03:17 -33.06411 -61.06423 11945 ft 234 kts 303°
2026-05-06 03:18 -33.05539 -61.08060 11942 ft 234 kts 303°
2026-05-06 03:18 -33.04666 -61.09692 11941 ft 234 kts 303°
2026-05-06 03:18 -33.03771 -61.11345 11933 ft 239 kts 297°
2026-05-06 03:18 -33.02874 -61.13019 11941 ft 244 kts 297°
2026-05-06 03:19 -33.01953 -61.14742 11945 ft 248 kts 297°
2026-05-06 03:19 -33.01021 -61.16485 11947 ft 251 kts 297°
2026-05-06 03:19 -33.00087 -61.18245 11960 ft 250 kts 306°
2026-05-06 03:19 -32.99158 -61.19990 11951 ft 249 kts 306°
2026-05-06 03:20 -32.97292 -61.23455 11948 ft 247 kts 306°
2026-05-06 03:20 -32.96364 -61.25177 11948 ft 247 kts 306°
2026-05-06 03:20 -32.95438 -61.26898 11943 ft 248 kts 308°
2026-05-06 03:21 -32.94503 -61.28632 11947 ft 249 kts 308°
2026-05-06 03:21 -32.93565 -61.30370 11947 ft 250 kts 308°
2026-05-06 03:21 -32.92637 -61.32091 11947 ft 251 kts 308°
2026-05-06 03:21 -32.91694 -61.33839 11947 ft 251 kts 308°
2026-05-06 03:22 -32.90748 -61.35591 11947 ft 252 kts 308°
2026-05-06 03:22 -32.89800 -61.37350 11947 ft 252 kts 308°
2026-05-06 03:22 -32.88849 -61.39112 11947 ft 252 kts 308°
2026-05-06 03:22 -32.87899 -61.40870 11949 ft 252 kts 298°
2026-05-06 03:23 -32.86951 -61.42619 11963 ft 250 kts 306°
2026-05-06 03:23 -32.86016 -61.44363 11965 ft 249 kts 305°
2026-05-06 03:23 -32.85083 -61.46094 11966 ft 248 kts 305°
2026-05-06 03:23 -32.84152 -61.47817 11965 ft 247 kts 305°
2026-05-06 03:24 -32.83224 -61.49531 11965 ft 246 kts 306°
2026-05-06 03:24 -32.82309 -61.51221 11965 ft 245 kts 306°
2026-05-06 03:24 -32.81387 -61.52924 11965 ft 245 kts 306°
2026-05-06 03:24 -32.80466 -61.54624 11965 ft 244 kts 306°
2026-05-06 03:25 -32.79547 -61.56319 11965 ft 243 kts 306°
2026-05-06 03:25 -32.78632 -61.58006 11966 ft 243 kts 306°
2026-05-06 03:25 -32.77719 -61.59688 11965 ft 242 kts 304°
2026-05-06 03:25 -32.76806 -61.61367 11963 ft 241 kts 304°
2026-05-06 03:26 -32.75896 -61.63043 11963 ft 241 kts 304°
2026-05-06 03:26 -32.74985 -61.64721 11966 ft 240 kts 304°
2026-05-06 03:26 -32.74093 -61.66363 11973 ft 239 kts 303°
2026-05-06 03:26 -32.73189 -61.68024 11976 ft 238 kts 303°
2026-05-06 03:27 -32.72291 -61.69676 11978 ft 238 kts 303°
2026-05-06 03:27 -32.71394 -61.71326 11979 ft 237 kts 303°
2026-05-06 03:27 -32.70494 -61.72978 11980 ft 237 kts 303°
2026-05-06 03:27 -32.69598 -61.74624 11980 ft 237 kts 302°
2026-05-06 03:28 -32.68713 -61.76249 11982 ft 236 kts 302°
2026-05-06 03:28 -32.67820 -61.77887 11983 ft 236 kts 302°
2026-05-06 03:28 -32.66929 -61.79522 11983 ft 236 kts 302°
2026-05-06 03:28 -32.66038 -61.81156 11983 ft 236 kts 302°
2026-05-06 03:29 -32.65147 -61.82789 11983 ft 235 kts 302°
2026-05-06 03:29 -32.64258 -61.84417 11984 ft 235 kts 302°
2026-05-06 03:29 -32.63368 -61.86048 11985 ft 235 kts 302°
2026-05-06 03:29 -32.62478 -61.87675 11985 ft 235 kts 301°
2026-05-06 03:30 -32.61594 -61.89291 11990 ft 235 kts 301°
2026-05-06 03:30 -32.60703 -61.90920 11991 ft 235 kts 301°
2026-05-06 03:30 -32.59813 -61.92548 11990 ft 235 kts 301°
2026-05-06 03:30 -32.58920 -61.94180 11991 ft 236 kts 301°
2026-05-06 03:31 -32.58027 -61.95812 11991 ft 236 kts 301°
2026-05-06 03:31 -32.57134 -61.97442 11991 ft 236 kts 301°
2026-05-06 03:31 -32.56241 -61.99070 11991 ft 236 kts 301°
2026-05-06 03:31 -32.55345 -62.00706 11992 ft 236 kts 301°
2026-05-06 03:32 -32.54450 -62.02337 11992 ft 236 kts 301°
2026-05-06 03:32 -32.53553 -62.03972 11992 ft 236 kts 301°
2026-05-06 03:32 -32.52670 -62.05580 11991 ft 236 kts 301°
2026-05-06 03:32 -32.51773 -62.07212 11991 ft 236 kts 301°
2026-05-06 03:33 -32.50874 -62.08848 11990 ft 236 kts 301°
2026-05-06 03:33 -32.49979 -62.10477 11990 ft 236 kts 301°
2026-05-06 03:33 -32.49081 -62.12109 11989 ft 236 kts 301°
2026-05-06 03:33 -32.48182 -62.13744 11989 ft 236 kts 301°
2026-05-06 03:34 -32.47296 -62.15352 11989 ft 236 kts 301°
2026-05-06 03:34 -32.46398 -62.16984 11989 ft 236 kts 301°
2026-05-06 03:34 -32.45498 -62.18616 11989 ft 236 kts 301°
2026-05-06 03:34 -32.44600 -62.20245 11989 ft 236 kts 301°
2026-05-06 03:35 -32.43702 -62.21874 11989 ft 236 kts 301°
2026-05-06 03:35 -32.42803 -62.23504 11990 ft 236 kts 301°
2026-05-06 03:35 -32.41904 -62.25133 11990 ft 236 kts 301°
2026-05-06 03:35 -32.41005 -62.26762 11990 ft 236 kts 301°
2026-05-06 03:36 -32.40114 -62.28374 11990 ft 236 kts 301°
2026-05-06 03:36 -32.39215 -62.30001 11990 ft 236 kts 301°
2026-05-06 03:36 -32.38316 -62.31627 11990 ft 236 kts 301°
2026-05-06 03:36 -32.37418 -62.33251 11990 ft 236 kts 301°
2026-05-06 03:37 -32.36516 -62.34881 11989 ft 236 kts 301°
2026-05-06 03:37 -32.35613 -62.36510 11990 ft 237 kts 300°
2026-05-06 03:37 -32.34711 -62.38139 11990 ft 237 kts 300°
2026-05-06 03:37 -32.33804 -62.39774 11987 ft 238 kts 300°
2026-05-06 03:38 -32.32895 -62.41413 11988 ft 239 kts 300°
2026-05-06 03:38 -32.31995 -62.43039 11988 ft 239 kts 300°
2026-05-06 03:38 -32.31081 -62.44688 11988 ft 240 kts 300°
2026-05-06 03:38 -32.30165 -62.46338 11988 ft 240 kts 300°
2026-05-06 03:39 -32.29248 -62.47990 11988 ft 240 kts 300°
2026-05-06 03:39 -32.28330 -62.49643 11988 ft 240 kts 300°
2026-05-06 03:39 -32.27410 -62.51297 11988 ft 240 kts 300°
2026-05-06 03:39 -32.26489 -62.52954 11988 ft 241 kts 300°
2026-05-06 03:40 -32.25578 -62.54592 11989 ft 241 kts 300°
2026-05-06 03:40 -32.24658 -62.56247 11988 ft 241 kts 300°
2026-05-06 03:40 -32.23735 -62.57905 11987 ft 241 kts 300°
2026-05-06 03:40 -32.22820 -62.59545 11989 ft 242 kts 299°
2026-05-06 03:41 -32.21893 -62.61207 11991 ft 242 kts 299°
2026-05-06 03:41 -32.20962 -62.62879 11992 ft 243 kts 299°
2026-05-06 03:41 -32.20033 -62.64546 11992 ft 244 kts 299°
2026-05-06 03:41 -32.19100 -62.66218 11993 ft 244 kts 299°
2026-05-06 03:42 -32.18166 -62.67892 11992 ft 244 kts 299°
2026-05-06 03:42 -32.17231 -62.69566 11992 ft 244 kts 299°
2026-05-06 03:42 -32.16305 -62.71225 11994 ft 245 kts 300°
2026-05-06 03:42 -32.15367 -62.72904 11991 ft 244 kts 300°
2026-05-06 03:43 -32.14430 -62.74579 11990 ft 244 kts 300°
2026-05-06 03:43 -32.13493 -62.76253 11989 ft 244 kts 300°
2026-05-06 03:43 -32.12558 -62.77923 11988 ft 244 kts 300°
2026-05-06 03:43 -32.11621 -62.79597 11988 ft 243 kts 300°
2026-05-06 03:44 -32.10698 -62.81245 11987 ft 243 kts 300°
2026-05-06 03:44 -32.09765 -62.82910 11985 ft 243 kts 300°
2026-05-06 03:44 -32.08832 -62.84574 11984 ft 243 kts 300°
2026-05-06 03:44 -32.07901 -62.86233 11984 ft 242 kts 300°
2026-05-06 03:45 -32.06969 -62.87893 11984 ft 242 kts 301°
2026-05-06 03:45 -32.06040 -62.89548 11984 ft 242 kts 301°
2026-05-06 03:45 -32.05114 -62.91197 11984 ft 241 kts 301°
2026-05-06 03:45 -32.04199 -62.92826 11984 ft 241 kts 301°
2026-05-06 03:46 -32.03271 -62.94475 11985 ft 241 kts 300°
2026-05-06 03:46 -32.02344 -62.96124 11985 ft 241 kts 300°
2026-05-06 03:46 -32.01419 -62.97768 11985 ft 241 kts 300°
2026-05-06 03:46 -32.00492 -62.99414 11986 ft 241 kts 300°
2026-05-06 03:47 -31.99566 -63.01060 11986 ft 241 kts 300°
2026-05-06 03:47 -31.98640 -63.02705 11986 ft 241 kts 301°
2026-05-06 03:47 -31.97715 -63.04346 11984 ft 240 kts 301°
2026-05-06 03:47 -31.96790 -63.05987 11983 ft 240 kts 301°
2026-05-06 03:48 -31.95878 -63.07605 11983 ft 240 kts 301°
2026-05-06 03:48 -31.94943 -63.09261 11982 ft 240 kts 301°
2026-05-06 03:48 -31.94019 -63.10897 11982 ft 240 kts 301°
2026-05-06 03:48 -31.93095 -63.12533 11982 ft 239 kts 301°
2026-05-06 03:49 -31.92186 -63.14141 11982 ft 239 kts 301°
2026-05-06 03:49 -31.91263 -63.15775 11982 ft 239 kts 301°
2026-05-06 03:49 -31.90339 -63.17409 11983 ft 239 kts 301°
2026-05-06 03:49 -31.89418 -63.19037 11983 ft 239 kts 301°
2026-05-06 03:50 -31.88492 -63.20672 11983 ft 239 kts 301°
2026-05-06 03:50 -31.87570 -63.22301 11929 ft 241 kts 301°
2026-05-06 03:50 -31.86626 -63.23971 11706 ft 248 kts 301°
2026-05-06 03:50 -31.85668 -63.25665 11486 ft 255 kts 301°
2026-05-06 03:51 -31.84674 -63.27422 11264 ft 260 kts 302°
2026-05-06 03:51 -31.83662 -63.29213 11040 ft 265 kts 305°
2026-05-06 03:51 -31.82629 -63.31032 10815 ft 269 kts 302°
2026-05-06 03:51 -31.81577 -63.32885 10586 ft 275 kts 307°
2026-05-06 03:52 -31.80503 -63.34773 10326 ft 281 kts 307°
2026-05-06 03:52 -31.79403 -63.36701 10028 ft 287 kts 307°
2026-05-06 03:52 -31.78280 -63.38667 9729 ft 291 kts 307°
2026-05-06 03:52 -31.77158 -63.40635 9433 ft 294 kts 307°
2026-05-06 03:53 -31.76011 -63.42647 9132 ft 296 kts 306°
2026-05-06 03:53 -31.74863 -63.44661 8832 ft 297 kts 306°
2026-05-06 03:53 -31.73726 -63.46657 8531 ft 285 kts 306°
2026-05-06 03:53 -31.72633 -63.48582 8229 ft 282 kts 306°
2026-05-06 03:54 -31.71545 -63.50492 7928 ft 280 kts 306°
2026-05-06 03:54 -31.70463 -63.52389 7627 ft 278 kts 306°
2026-05-06 03:54 -31.69390 -63.54268 7327 ft 276 kts 306°
2026-05-06 03:54 -31.68324 -63.56135 7026 ft 274 kts 306°
2026-05-06 03:55 -31.67265 -63.57988 6726 ft 272 kts 306°
2026-05-06 03:55 -31.66226 -63.59805 6443 ft 270 kts 305°
2026-05-06 03:55 -31.65184 -63.61627 6167 ft 267 kts 305°
2026-05-06 03:55 -31.64163 -63.63412 6079 ft 258 kts 305°
2026-05-06 03:56 -31.63180 -63.65131 6025 ft 248 kts 305°
2026-05-06 03:56 -31.62234 -63.66785 6003 ft 240 kts 305°
2026-05-06 03:56 -31.61318 -63.68385 5998 ft 232 kts 305°
2026-05-06 03:56 -31.60428 -63.69938 5997 ft 226 kts 305°
2026-05-06 03:57 -31.59564 -63.71460 5932 ft 225 kts 305°
2026-05-06 03:57 -31.58674 -63.73009 5703 ft 230 kts 306°
2026-05-06 03:57 -31.57723 -63.74537 5479 ft 233 kts 308°
2026-05-06 03:57 -31.56746 -63.76045 5257 ft 236 kts 308°
2026-05-06 03:58 -31.55736 -63.77564 5033 ft 237 kts 309°
2026-05-06 03:58 -31.54704 -63.79083 4808 ft 238 kts 309°
2026-05-06 03:58 -31.53669 -63.80604 4582 ft 239 kts 306°
2026-05-06 03:58 -31.52767 -63.82243 4359 ft 240 kts 301°
2026-05-06 03:59 -31.52205 -63.83370 4208 ft 240 kts 300°
2026-05-06 03:59 -31.51370 -63.85057 4087 ft 236 kts 300°
2026-05-06 03:59 -31.50543 -63.86687 4058 ft 230 kts 300°
2026-05-06 03:59 -31.49445 -63.88778 4012 ft 224 kts 302°
2026-05-06 04:00 -31.48894 -63.89799 4006 ft 221 kts 302°
2026-05-06 04:00 -31.47788 -63.91804 4002 ft 217 kts 303°
2026-05-06 04:00 -31.47233 -63.92796 4002 ft 215 kts 303°
2026-05-06 04:00 -31.46423 -63.94229 4002 ft 213 kts 303°
2026-05-06 04:01 -31.45594 -63.95681 3986 ft 215 kts 301°
2026-05-06 04:01 -31.44758 -63.97143 3981 ft 216 kts 302°
2026-05-06 04:01 -31.43916 -63.98611 3979 ft 218 kts 304°
2026-05-06 04:01 -31.43071 -64.00090 3963 ft 219 kts 306°
2026-05-06 04:02 -31.42217 -64.01569 3958 ft 219 kts 306°
2026-05-06 04:02 -31.41377 -64.03021 3957 ft 218 kts 306°
2026-05-06 04:02 -31.40523 -64.04496 3956 ft 218 kts 306°
2026-05-06 04:02 -31.39671 -64.05967 3956 ft 218 kts 306°
2026-05-06 04:03 -31.38637 -64.07230 3959 ft 215 kts 325°
2026-05-06 04:03 -31.37365 -64.08144 3958 ft 213 kts 333°
2026-05-06 04:03 -31.36043 -64.08939 3956 ft 212 kts 335°
2026-05-06 04:03 -31.34708 -64.09682 3956 ft 212 kts 337°
2026-05-06 04:04 -31.33365 -64.10388 3956 ft 211 kts 338°
2026-05-06 04:04 -31.32012 -64.11062 3957 ft 211 kts 339°
2026-05-06 04:04 -31.30661 -64.11697 3959 ft 211 kts 340°
2026-05-06 04:04 -31.29285 -64.12303 3960 ft 211 kts 342°
2026-05-06 04:05 -31.27896 -64.12873 3959 ft 212 kts 343°
2026-05-06 04:05 -31.26493 -64.13403 3958 ft 212 kts 345°
2026-05-06 04:05 -31.25078 -64.13890 3958 ft 212 kts 346°
2026-05-06 04:05 -31.23648 -64.14332 3959 ft 212 kts 348°
2026-05-06 04:06 -31.22209 -64.14721 3959 ft 213 kts 350°
2026-05-06 04:06 -31.20753 -64.15034 3959 ft 212 kts 354°
2026-05-06 04:06 -31.19281 -64.15154 3959 ft 212 kts
2026-05-06 04:06 -31.17830 -64.15063 3960 ft 211 kts
2026-05-06 04:07 -31.16379 -64.14806 3960 ft 211 kts 12°
2026-05-06 04:07 -31.14948 -64.14440 3960 ft 211 kts 15°
2026-05-06 04:07 -31.13504 -64.14154 3946 ft 213 kts 359°
2026-05-06 04:07 -31.12131 -64.14779 3970 ft 215 kts 328°
2026-05-06 04:08 -31.10929 -64.15873 3791 ft 225 kts 321°
2026-05-06 04:08 -31.09663 -64.16993 3643 ft 229 kts 327°
2026-05-06 04:08 -31.08227 -64.17776 3590 ft 228 kts 345°
2026-05-06 04:08 -31.06659 -64.17969 3574 ft 224 kts 360°
2026-05-06 04:09 -31.05636 -64.18113 3553 ft 224 kts 345°
2026-05-06 04:09 -31.04143 -64.19650 3559 ft 221 kts 294°
2026-05-06 04:09 -31.04033 -64.21395 3560 ft 218 kts 255°
2026-05-06 04:09 -31.04867 -64.22808 3561 ft 213 kts 215°
2026-05-06 04:10 -31.06252 -64.23271 3561 ft 209 kts 175°
2026-05-06 04:10 -31.07648 -64.22855 3571 ft 208 kts 159°
2026-05-06 04:10 -31.09010 -64.22274 3563 ft 209 kts 160°
2026-05-06 04:10 -31.10407 -64.21789 3561 ft 209 kts 165°
2026-05-06 04:11 -31.11831 -64.21448 3560 ft 210 kts 169°
2026-05-06 04:11 -31.12298 -64.21364 3560 ft 210 kts 171°
2026-05-06 04:11 -31.13757 -64.21184 3561 ft 209 kts 175°
2026-05-06 04:11 -31.16171 -64.21071 3592 ft 208 kts 178°
2026-05-06 04:12 -31.16658 -64.21061 3595 ft 208 kts 178°
2026-05-06 04:13 -31.26939 -64.21064 2126 ft 149 kts 178°
2026-05-06 04:14 -31.27962 -64.20947 1871 ft 146 kts 174°
2026-05-06 04:14 -31.28960 -64.20868 1672 ft 141 kts 178°
2026-05-06 04:14 -31.29901 -64.20851 1613 ft 129 kts 179°
2026-05-06 04:14 -31.30658 -64.20839 1612 ft 76 kts 179°
2026-05-06 04:15 -31.31049 -64.20837 1612 ft 41 kts 180°
2026-05-06 04:15 -31.31281 -64.20835 1612 ft 28 kts 179°
2026-05-06 04:15 -31.31460 -64.20832 1612 ft 24 kts 179°
2026-05-06 04:15 -31.31625 -64.20830 1612 ft 23 kts 179°
2026-05-06 04:16 -31.31727 -64.20861 1612 ft 10 kts 230°
2026-05-06 04:16 -31.31762 -64.20909 1612 ft 0 kts 212°